Millville, NJ

12:11 PM EDT on October 18, 2017 (GMT -0400)
Millville Municipal

Weather History for KMIV - September, 2013

Change the Weather History Date:

Wednesday, September 11, 2013

  Actual Average Record
Temperature  
Mean Temperature 80 °F -  
Max Temperature 90 °F 80 °F 97 °F (1983)
Min Temperature 69 °F 58 °F 46 °F (1949)
Cooling Degree Days 14    
Growing Degree Days 30 (Base 50)    
Moisture  
Dew Point 72 °F    
Average Humidity 83    
Maximum Humidity 100    
Minimum Humidity 57    
Precipitation  
Precipitation 0.00 in - - ()
Sea Level Pressure  
Sea Level Pressure 30.10 in    
Wind  
Wind Speed 1 mph (SSW)    
Max Wind Speed 8 mph    
Max Gust Speed -    
Visibility 6 miles    
Events      
Averages and records for this station are not official NWS values.
T = Trace of Precipitation, MM = Missing Value Source: NWS Daily Summary

Daily Weather History Graph

Daily Weather History Graph

Search for Another Location

Airport or City:

Trip Planner

Search our weather history database for the weather conditions in past years. The results will help you decide how hot, cold, wet, or windy it might be!

Date:

Astronomy

Sep. 11, 2013 Rise Set
Actual Time 6:38 AM EDT 7:14 PM EDT
Civil Twilight 6:10 AM EDT 7:41 PM EDT
Nautical Twilight 5:39 AM EDT 8:13 PM EDT
Astronomical Twilight 5:06 AM EDT 8:46 PM EDT
Moon 1:01 PM EDT (9/11) 11:10 PM EDT (9/11)
Length of Visible Light 13h 30m
Length of Day
12h 36m
Waxing Crescent, 38% of the Moon is Illuminated
Sep 11
Waxing Crescent
Sep 12
First Quarter
Sep 19
Full
Sep 26
Last Quarter
Oct 4
New

Hourly Weather History & Observations

Time (EDT) Temp. Heat Index Dew Point Humidity Pressure Visibility Wind Dir Wind Speed Gust Speed Precip Events Conditions
12:54 AM 73.9 °F - 72.0 °F 93% 30.15 in 6.0 mi Calm Calm - N/A   Clear
1:54 AM 73.0 °F - 71.1 °F 93% 30.13 in 6.0 mi Calm Calm - N/A   Clear
2:54 AM 73.0 °F - 71.1 °F 93% 30.13 in 6.0 mi Calm Calm - N/A   Clear
3:54 AM 73.0 °F - 71.1 °F 93% 30.12 in 6.0 mi Calm Calm - N/A   Partly Cloudy
4:54 AM 73.0 °F - 71.1 °F 93% 30.11 in 5.0 mi Calm Calm - N/A   Clear
5:54 AM 71.1 °F - 70.0 °F 96% 30.12 in 4.0 mi Calm Calm - N/A   Clear
6:11 AM 69.8 °F - 69.8 °F 100% 30.13 in 1.5 mi Calm Calm - N/A   Clear
6:28 AM 69.8 °F - 69.8 °F 100% 30.13 in 2.0 mi Calm Calm - N/A   Clear
6:38 AM 69.8 °F - 69.8 °F 100% 30.14 in 1.5 mi Calm Calm - N/A   Clear
6:54 AM 71.1 °F - 70.0 °F 96% 30.14 in 1.8 mi Calm Calm - N/A   Clear
7:42 AM 73.4 °F - 71.6 °F 94% 30.15 in 2.5 mi Calm Calm - N/A   Clear
7:50 AM 73.4 °F - 71.6 °F 94% 30.15 in 3.0 mi Calm Calm - N/A   Clear
7:54 AM 73.0 °F - 72.0 °F 96% 30.15 in 3.0 mi Calm Calm - N/A   Clear
8:54 AM 77.0 °F - 73.0 °F 88% 30.15 in 6.0 mi WSW 4.6 mph - N/A   Clear
9:54 AM 81.0 °F 85.8 °F 73.0 °F 77% 30.15 in 7.0 mi WSW 6.9 mph - N/A   Clear
10:54 AM 82.9 °F 89.4 °F 73.9 °F 74% 30.14 in 8.0 mi SW 4.6 mph - N/A   Clear
11:54 AM 87.1 °F 95.4 °F 73.9 °F 65% 30.12 in 8.0 mi SSW 4.6 mph - N/A   Clear
12:54 PM 88.0 °F 95.6 °F 73.0 °F 61% 30.11 in 9.0 mi SSW 6.9 mph - N/A   Clear
1:54 PM 89.1 °F 96.0 °F 72.0 °F 57% 30.10 in 9.0 mi South 8.1 mph - N/A   Clear
2:54 PM 90.0 °F 99.0 °F 73.9 °F 59% 30.07 in 8.0 mi SSW 6.9 mph - N/A   Clear
3:54 PM 90.0 °F 99.0 °F 73.9 °F 59% 30.05 in 9.0 mi Variable 6.9 mph - N/A   Clear
4:54 PM 87.1 °F 94.5 °F 73.0 °F 63% 30.04 in 8.0 mi South 8.1 mph - N/A   Clear
5:54 PM 84.9 °F 91.4 °F 73.0 °F 67% 30.04 in 9.0 mi Calm Calm - N/A   Clear
6:54 PM 81.0 °F 85.2 °F 72.0 °F 74% 30.04 in 7.0 mi Variable 3.5 mph - N/A   Clear
7:54 PM 78.1 °F - 72.0 °F 81% 30.05 in 7.0 mi Calm Calm - N/A   Clear
8:54 PM 75.9 °F - 71.1 °F 85% 30.06 in 7.0 mi SSE 3.5 mph - N/A   Clear
9:54 PM 73.9 °F - 70.0 °F 87% 30.06 in 7.0 mi Calm Calm - N/A   Clear
10:54 PM 73.9 °F - 71.1 °F 91% 30.04 in 5.0 mi Calm Calm - N/A   Clear
11:54 PM 75.0 °F - 72.0 °F 90% 30.02 in 6.0 mi Variable 3.5 mph - N/A   Clear